Orlando International Airport Orlando US
ICAO: KMCO
IATA: MCO
Category: Large
Scheduled Services: Yes

Elevation: 96 ft
TransAlt. 18000 ft.

Airport Communications:
APP/DEP:119.4
ATIS:121.25
CLNC DEL:134.7
GND:121.8
AR OPS:41.5
ST PETERSBURG RDO:122.1
ST PETERSBURG RDO:122.2
TWR:118.45
UNICOM:122.95

KMCO Zoom In..

Runways:

(A) RW 17L length 9001 ft width 150 ft
ILS 110.95 / hdg 185

(B) RW 17R length 10000 ft width 150 ft
ILS 111.75 / hdg 185

(C) RW 18L length 12005 ft width 200 ft
---- / hdg 185

(D) RW 18R length 12005 ft width 200 ft
ILS 111.90 / hdg 185

(E) RW 35L length 10000 ft width 150 ft
ILS 110.50 / hdg 5

(F) RW 35R length 9001 ft width 150 ft
ILS 111.15 / hdg 5

(G) RW 36L length 12005 ft width 200 ft
---- / hdg 5

(H) RW 36R length 12005 ft width 200 ft
ILS 110.70 / hdg 5

Location; KMCO
Day. 19 / Time. 20.53 Zulu
* Altimeter: 29.96
* Temperature: 26° c. 78.8°f.
* Wind from: 190° Speed 08 kn.
Dewpoint: 25° c.
Visibility: 10 Statute Miles.
Clouds: Few 4000 ft.
Clouds: Few 9500 ft.
Clouds: Broken 19000 ft.
Clouds: Broken 25000 ft.

KMCO 192053Z 19008KT 10SM FEW040 FEW095 BKN190 BKN250 26/25 A2996 RMK AO2 SLP143 60042 T02610250 58004


Wind From 190°
Speed 08 kn.

 
 
jpsmedia.com for Web Design worldairports.se 2018   terms of use